Location: Ay?beleni
(36.6500°N, 30.3000°E)
Time: 01:09:12
(UTC+00:00)

Hubble Space Telescope - Pass Details

Date: 09 April 2020
Orbit: 536 x 540 km, 28.5° (Epoch: 23 May)

Event Time Altitude Azimuth Distance (km) Brightness Sun altitude
Rises 18:58:03 0° 254° (WSW) 2,667 4.8 -28.3°
Reaches altitude 10° 19:00:36 10° 241° (WSW) 1,777 3.6 -28.7°
Enters shadow 19:00:44 11° 240° (WSW) 1,736 3.6 -28.7°
